Weather in Stepanishchevo

Russia / Oryol Oblast     52°28′32″N   36°54′25″E
temp.,
°C
wind,
m/s
gust,
m/s
humid.,
%
clouds,
%
prec.,
mm/h
press.,
hPa
HPBL,
m
24 july, sat
sat2400:00+17wnw377562 0.1 1011166
03:00+15nw348479 0.1 101271
06:00+15nw25795 0.0 1012129
09:00+20nnw45632 0.0 1013635
12:00+22nnw574345 0.0 10141959
15:00+23nnw574136 0.0 10142344
18:00+21nne55512 0.0 10161588
21:00+16nne33650 0.0 101829
25 july, sun
sun2500:00+15ene22682 0.0 101918
03:00+14ene236415 0.0 102023
06:00+14s006766 0.0 102123
09:00+19ese115188 0.0 1021437
12:00+22nne224175 0.0 10221431
15:00+23n213824 0.0 10221591
18:00+23n22400 0.0 10221737
21:00+17ne33580 0.0 102323
26 july, mon
mon2600:00+16e225985 0.0 102426
03:00+16ene235795 0.0 102439
06:00+17e11600 0.0 102520
09:00+21e22473 0.0 1025425
12:00+24ne23360 0.0 10252159
15:00+25nne223420 0.0 10242417
18:00+25n223712 0.0 10241931
21:00+19nne345225 0.0 102453
27 july, tue
tue2700:00+18e335228 0.0 102538
03:00+16ne125724 0.0 102412
06:00+16ese11620 0.0 102511
09:00+22ne21462 0.0 1025398
12:00+26e12346 0.0 10242240
15:00+27se113218 0.0 10232576
18:00+26w013443 0.0 10222413
21:00+22sse014567 0.0 102211
28 july, wed
wed2800:00+19se11520 0.0 102211
03:00+17sse11550 0.0 102111
06:00+17s225960 0.0 102135
09:00+23sse34445 0.0 1020391
12:00+27s45355 0.0 10181870
15:00+29ssw463386 0.0 10162420
18:00+28ssw3639100 0.0 1015914
21:00+24s4105226 0.0 1014277